EW3345 Weather Reports


time (UTC)temp
F
wind
direction
speed
knots
gust
knots
rain 1hr
in
rain 24hr
in
rain mn
in
humidity
%
barometer
mb
20260506122257 55 90 0.9 3.5 0.00 0.00 0.00 40 1014.3
20260506121217 55 135 2.6 4.3 0.00 0.00 0.00 37 1014.5
20260506120217 54 293 5.2 7.8 0.00 0.00 0.00 38 1014.5
20260506115257 54 113 4.3 6.1 0.00 0.00 0.00 40 1014.5
20260506114217 54 113 2.6 4.3 0.00 0.00 0.00 38 1014.6
20260506113237 55 135 2.6 5.2 0.00 0.00 0.00 40 1014.7
20260506112217 53 315 2.6 4.3 0.00 0.00 0.00 38 1014.7
20260506111216 53 315 9.6 11.3 0.00 0.00 0.00 40 1014.6
20260506110217 53 248 0.9 3.5 0.00 0.00 0.00 40 1014.9
20260506105216 53 203 1.7 4.3 0.00 0.00 0.00 44 1014.8
20260506104217 52 180 0.9 2.6 0.00 0.00 0.00 39 1014.8
20260506103217 52 293 3.5 7.0 0.00 0.00 0.00 39 1014.9
20260506102217 53 293 6.1 8.7 0.00 0.00 0.00 42 1015.0
20260506101216 52 158 0.9 1.7 0.00 0.00 0.00 42 1014.9
20260506100216 52 315 7.0 8.7 0.00 0.00 0.00 42 1015.0
20260506095216 52 338 0.9 2.6 0.00 0.00 0.00 40 1015.1
20260506094217 52 315 1.7 3.5 0.00 0.00 0.00 42 1015.1
20260506093217 51 293 5.2 10.4 0.00 0.00 0.00 43 1015.0
20260506092217 51 315 5.2 8.7 0.00 0.00 0.00 48 1015.0
20260506091217 50 315 2.6 3.5 0.00 0.00 0.00 45 1015.0
20260506090216 50 315 7.0 10.4 0.00 0.00 0.00 48 1015.0
20260506085216 50 293 4.3 7.8 0.00 0.00 0.00 48 1015.0
20260506084217 50 293 2.6 5.2 0.00 0.00 0.00 49 1015.0
20260506083236 50 293 7.8 8.7 0.00 0.00 0.00 47 1014.9
20260506082216 49 338 4.3 6.1 0.00 0.00 0.00 48 1015.1
20260506081237 49 315 4.3 9.6 0.00 0.00 0.00 50 1015.0
20260506080216 49 293 5.2 7.8 0.00 0.00 0.00 50 1015.0
20260506073216 48 293 7.8 11.3 0.00 0.00 0.00 52 1014.7
20260506072216 47 315 5.2 7.0 0.00 0.00 0.00 52 1014.8
20260506071216 47 315 4.3 7.0 0.00 0.00 0.00 51 1014.5
20260506070216 47 293 6.1 8.7 0.00 0.00 0.00 54 1014.6
20260506062216 45 315 2.6 3.5 0.00 0.00 0.00 58 1014.2
20260506061216 45 315 4.3 7.0 0.00 0.00 0.00 59 1014.3
20260506060216 44 293 5.2 7.0 0.00 0.00 0.00 61 1014.3
20260506051216 42 293 2.6 3.5 0.00 0.00 0.00 71 1014.1
20260506050216 41 293 2.6 3.5 0.00 0.00 0.00 74 1013.9
20260506044216 39 315 0.9 1.7 0.00 0.00 0.00 78 1013.9
20260506043236 39 293 1.7 1.7 0.00 0.00 0.00 79 1013.8
20260506042216 38 248 0.9 1.7 0.00 0.00 0.00 81 1013.7
20260506041216 37 0.0 0.0 0.00 0.00 0.00 81 1013.6
20260506040216 36 225 1.7 1.7 0.00 0.00 0.00 82 1013.6
20260506035216 35 248 0.9 0.9 0.00 0.00 0.00 83 1013.4
20260506034216 34 0.0 0.0 0.00 0.00 0.00 83 1013.3
20260506033216 34 0.0 0.0 0.00 0.00 0.00 83 1013.2
20260506032216 34 0.0 0.0 0.00 0.00 0.00 83 1013.1
20260506031216 34 0.0 0.0 0.00 0.00 0.00 82 1012.9
20260506030216 34 0.0 0.0 0.00 0.00 0.00 82 1012.7
20260506025236 33 0.0 0.9 0.00 0.00 0.00 82 1012.6
20260506024216 33 0.0 0.0 0.00 0.00 0.00 82 1012.5
20260506023216 33 0.0 0.0 0.00 0.00 0.00 81 1012.5
20260506022216 33 0.0 0.0 0.00 0.00 0.00 80 1012.5
20260506021236 34 0.0 0.0 0.00 0.00 0.00 79 1012.4
20260506020235 34 0.0 0.0 0.00 0.00 0.00 79 1012.4
20260506015215 34 0.0 0.0 0.00 0.00 0.00 78 1012.2
20260506014215 35 0.0 0.0 0.00 0.00 0.00 77 1012.2
20260506013216 35 0.0 0.0 0.00 0.00 0.00 77 1012.1
20260506012215 35 0.0 0.0 0.00 0.00 0.00 76 1012.0
20260506011235 36 0.0 0.9 0.00 0.00 0.00 75 1011.8
20260506010216 36 0.0 0.0 0.00 0.00 0.00 74 1011.8
20260506005216 37 315 0.9 0.9 0.00 0.00 0.00 74 1011.7
20260506004215 37 0.0 0.9 0.00 0.00 0.00 74 1011.6
20260506003217 37 315 0.9 2.6 0.00 0.00 0.00 73 1011.5
20260506002217 37 0.0 0.9 0.00 0.00 0.00 73 1011.5
20260506001217 38 315 1.7 3.5 0.00 0.00 0.00 73 1011.4
20260506000258 38 0.0 0.9 0.00 0.00 0.00 72 1011.3
20260505235217 38 0.0 0.9 0.00 0.00 0.00 72 1011.4
20260505234237 38 315 1.7 2.6 0.00 0.00 0.00 72 1011.2
20260505233217 38 0.0 0.9 0.00 0.00 0.00 72 1011.2
20260505232237 38 0.0 0.9 0.00 0.00 0.00 71 1011.1
20260505231217 39 0.0 0.0 0.00 0.00 0.00 71 1011.1
20260505230217 39 0.0 0.0 0.00 0.00 0.00 70 1011.1
20260505225217 40 293 0.9 1.7 0.00 0.00 0.00 69 1011.0
20260505224217 40 315 0.9 1.7 0.00 0.00 0.00 69 1011.0
20260505223217 40 0.0 0.9 0.00 0.00 0.00 69 1010.9
20260505222217 41 315 1.7 1.7 0.00 0.00 0.00 68 1010.8
20260505221217 41 315 0.9 1.7 0.00 0.00 0.00 68 1010.7
20260505220217 41 293 0.9 1.7 0.00 0.00 0.00 68 1010.7
20260505215217 42 315 0.9 1.7 0.00 0.00 0.00 69 1010.5
20260505214217 42 293 0.9 1.7 0.00 0.00 0.00 68 1010.3
20260505213217 43 293 0.9 1.7 0.00 0.00 0.00 67 1010.2
20260505212217 43 315 1.7 2.6 0.00 0.00 0.00 67 1010.1
20260505211217 44 293 2.6 3.5 0.00 0.00 0.00 66 1010.0
20260505210217 44 315 5.2 7.0 0.00 0.00 0.00 65 1009.8
20260505205215 45 315 5.2 7.8 0.00 0.00 0.00 66 1009.8
20260505204216 45 293 4.3 7.0 0.00 0.00 0.00 66 1009.6
20260505203216 46 293 4.3 7.0 0.00 0.00 0.00 66 1009.5
20260505202236 46 315 4.3 7.0 0.00 0.00 0.00 67 1009.3
20260505201216 47 293 3.5 4.3 0.00 0.00 0.00 68 1009.2
20260505200216 47 293 3.5 4.3 0.00 0.00 0.00 67 1009.2
20260505195216 47 315 4.3 7.0 0.00 0.00 0.00 68 1009.0
20260505194215 47 293 4.3 6.1 0.00 0.00 0.00 68 1008.8
20260505193235 48 315 4.3 7.8 0.00 0.00 0.00 68 1008.9
20260505192215 48 293 1.7 3.5 0.00 0.00 0.00 68 1008.7
20260505191215 49 293 2.6 3.5 0.00 0.00 0.00 67 1008.7
20260505190216 49 293 6.1 7.0 0.00 0.00 0.00 66 1008.6
20260505185255 50 293 4.3 6.1 0.00 0.00 0.00 65 1008.5
20260505184216 51 293 6.1 7.8 0.00 0.00 0.00 65 1008.3
20260505183216 51 293 7.8 10.4 0.00 0.00 0.00 64 1008.3
20260505182237 52 293 7.8 9.6 0.00 0.00 0.00 63 1008.3
20260505181218 52 270 6.1 7.8 0.00 0.00 0.00 60 1008.0
20260505180218 53 293 5.2 8.7 0.00 0.00 0.00 59 1007.9
20260505175217 54 293 7.0 9.6 0.00 0.00 0.00 58 1007.7
20260505174238 54 270 5.2 7.8 0.00 0.00 0.00 56 1007.8
20260505173217 55 270 7.8 10.4 0.00 0.00 0.00 53 1007.8
20260505172217 55 293 7.8 10.4 0.00 0.00 0.00 51 1007.8
20260505171217 55 270 7.8 9.6 0.00 0.00 0.00 49 1007.6
20260505170217 56 270 7.8 8.7 0.00 0.00 0.00 47 1007.6
20260505165217 56 293 9.6 13.9 0.00 0.00 0.00 47 1007.6
20260505164217 57 270 8.7 11.3 0.00 0.00 0.00 47 1007.6
20260505163217 56 270 9.6 13.9 0.00 0.00 0.00 48 1007.6
20260505162217 57 293 9.6 13.0 0.00 0.00 0.00 48 1007.4
20260505161217 58 293 8.7 11.3 0.00 0.00 0.00 47 1007.3
20260505160217 58 293 10.4 13.0 0.00 0.00 0.00 48 1007.4
20260505153217 58 293 12.2 14.8 0.00 0.00 0.00 52 1007.2
20260505152237 59 293 12.2 16.5 0.00 0.00 0.00 53 1007.3
20260505151217 59 293 11.3 14.8 0.00 0.00 0.00 53 1007.2
20260505150217 60 293 16.5 20.0 0.00 0.00 0.00 52 1007.1
20260505140237 62 293 10.4 13.0 0.00 0.00 0.00 43 1007.0
20260505130217 63 293 13.0 16.5 0.00 0.00 0.00 41 1006.8
20260505124216 63 270 8.7 13.0 0.00 0.00 0.00 42 1006.8
20260505123217 64 293 11.3 14.8 0.00 0.00 0.00 41 1006.8